TimeMDT,TemperatureF,Dew PointF,Humidity,Sea Level PressureIn,VisibilityMPH,Wind Direction,Wind SpeedMPH,Gust SpeedMPH,PrecipitationIn,Events,Conditions,WindDirDegrees,DateUTC
12:55 AM,60.1,33.1,36,29.99,10.0,Calm,Calm,-,N/A,,Clear,0,2013-09-07 06:55:00
1:55 AM,57.9,33.1,39,30.00,10.0,Calm,Calm,-,N/A,,Mostly Cloudy,0,2013-09-07 07:55:00
2:55 AM,57.9,32.0,37,30.00,10.0,South,3.5,-,N/A,,Clear,170,2013-09-07 08:55:00
3:55 AM,51.1,37.0,59,30.00,10.0,Calm,Calm,-,N/A,,Clear,0,2013-09-07 09:55:00
4:55 AM,48.0,33.1,56,30.00,10.0,WNW,3.5,-,N/A,,Clear,300,2013-09-07 10:55:00
5:55 AM,53.1,34.0,48,29.97,10.0,Calm,Calm,-,N/A,,Clear,0,2013-09-07 11:55:00
6:55 AM,48.0,34.0,58,30.01,10.0,Calm,Calm,-,N/A,,Clear,0,2013-09-07 12:55:00
7:55 AM,53.1,35.1,50,30.01,10.0,Calm,Calm,-,N/A,,Clear,0,2013-09-07 13:55:00
8:55 AM,55.9,35.1,45,30.02,10.0,Calm,Calm,-,N/A,,Clear,0,2013-09-07 14:55:00
9:55 AM,60.1,35.1,39,30.01,10.0,Calm,Calm,-,N/A,,Clear,0,2013-09-07 15:55:00
10:55 AM,64.9,35.1,33,30.01,10.0,Calm,Calm,-,N/A,,Clear,0,2013-09-07 16:55:00
11:55 AM,70.0,37.0,30,29.98,10.0,Calm,Calm,-,N/A,,Clear,0,2013-09-07 17:55:00
12:55 PM,73.9,41.0,30,29.94,10.0,Calm,Calm,-,N/A,,Clear,0,2013-09-07 18:55:00
1:55 PM,78.1,41.0,27,29.90,10.0,Variable,3.5,-,N/A,,Clear,0,2013-09-07 19:55:00
2:55 PM,81.0,41.0,24,29.86,10.0,East,4.6,-,N/A,,Partly Cloudy,90,2013-09-07 20:55:00
3:55 PM,84.0,35.1,17,29.84,10.0,SSE,6.9,-,N/A,,Partly Cloudy,150,2013-09-07 21:55:00
4:30 PM,87.8,24.8,10,30.02,10.0,SW,18.4,31.1,N/A,,Clear,230,2013-09-07 22:30:00
4:55 PM,84.9,24.1,11,29.84,10.0,SW,17.3,24.2,N/A,,Clear,220,2013-09-07 22:55:00
5:55 PM,84.9,25.0,11,29.83,10.0,WSW,9.2,18.4,N/A,,Clear,240,2013-09-07 23:55:00
6:55 PM,82.0,25.0,12,29.86,10.0,SSW,10.4,-,N/A,,Clear,210,2013-09-08 00:55:00
7:55 PM,78.1,26.1,15,29.86,10.0,WSW,9.2,-,0.00,,Clear,240,2013-09-08 01:55:00
8:55 PM,73.9,28.0,18,29.90,10.0,SSE,5.8,-,N/A,,Clear,160,2013-09-08 02:55:00
9:55 PM,68.0,42.1,39,29.92,10.0,South,3.5,-,N/A,,Clear,180,2013-09-08 03:55:00
10:55 PM,62.1,36.0,38,29.94,10.0,Calm,Calm,-,N/A,,Clear,0,2013-09-08 04:55:00
11:55 PM,61.0,34.0,36,29.92,10.0,WNW,5.8,-,N/A,,Clear,300,2013-09-08 05:55:00